EW5035 Weather Reports


time (UTC)temp
C
wind
direction
speed
KPH
gust
KPH
rain 1hr
cm
rain 24hr
cm
rain mn
cm
humidity
%
barometer
mb
20260505153104 17 270 3.2 9.7 0.00 0.00 0.00 63 1012.0
20260505152531 17 270 1.6 9.7 0.00 0.00 0.00 64 1011.9
20260505152031 17 270 4.8 9.7 0.00 0.00 0.00 65 1011.7
20260505151550 17 270 3.2 9.7 0.00 0.00 0.00 65 1011.7
20260505151034 17 270 3.2 12.9 0.00 0.00 0.00 63 1011.7
20260505150534 17 270 4.8 12.9 0.00 0.00 0.00 62 1011.8
20260505140533 13 270 4.8 11.3 0.00 0.00 0.00 68 1011.0
20260505125031 11 295 4.8 8.0 0.00 0.00 0.00 74 1010.1
20260505124557 11 295 3.2 8.0 0.00 0.00 0.00 74 1010.1
20260505124034 11 295 4.8 8.0 0.00 0.00 0.00 73 1010.0
20260505123533 11 295 4.8 8.0 0.00 0.00 0.00 73 1010.0
20260505123104 11 295 3.2 8.0 0.00 0.00 0.00 73 1010.1
20260505122534 11 295 1.6 8.0 0.00 0.00 0.00 73 1010.0
20260505122037 11 295 6.4 8.0 0.00 0.00 0.00 73 1009.9
20260505121543 11 295 1.6 8.0 0.00 0.00 0.00 73 1009.9
20260505121031 11 295 3.2 8.0 0.00 0.00 0.00 72 1009.7
20260505120531 11 295 3.2 8.0 0.00 0.00 0.00 72 1009.7
20260505120047 11 295 3.2 11.3 0.00 0.00 0.00 72 1009.7
20260505115531 11 295 3.2 11.3 0.00 0.00 0.00 72 1009.7
20260505115033 11 295 6.4 11.3 0.00 0.00 0.00 71 1009.6
20260505114546 12 295 4.8 8.0 0.00 0.00 0.00 71 1009.6
20260505114030 12 295 4.8 8.0 0.00 0.00 0.00 71 1009.6
20260505113532 12 295 3.2 8.0 0.00 0.00 0.00 70 1009.4
20260505113043 12 295 1.6 11.3 0.00 0.00 0.00 70 1009.5
20260505112534 12 295 4.8 11.3 0.00 0.00 0.00 71 1009.5
20260505112034 12 295 4.8 8.0 0.00 0.00 0.00 71 1009.3
20260505111550 12 295 1.6 8.0 0.00 0.00 0.00 70 1009.3
20260505111034 12 295 3.2 8.0 0.00 0.00 0.00 71 1009.3
20260505110534 12 0 1.6 4.8 0.00 0.00 0.00 71 1009.2
20260505102034 12 295 4.8 8.0 0.00 0.00 0.00 69 1009.0
20260505101541 13 295 3.2 6.4 0.00 0.00 0.00 67 1009.0
20260505101037 13 295 3.2 4.8 0.00 0.00 0.00 66 1009.1
20260505100538 13 295 0.0 4.8 0.00 0.00 0.00 65 1009.0
20260505100049 14 295 0.0 3.2 0.00 0.00 0.00 64 1009.0
20260505095534 14 0 0.0 6.4 0.00 0.00 0.00 63 1008.8
20260505095033 14 295 3.2 14.5 0.00 0.00 0.00 63 1008.7
20260505094553 14 295 4.8 14.5 0.00 0.00 0.00 63 1008.7
20260505094033 14 295 9.7 14.5 0.00 0.00 0.00 65 1008.4
20260505093533 13 295 4.8 11.3 0.00 0.00 0.00 66 1008.5
20260505093048 13 295 0.0 6.4 0.00 0.00 0.00 66 1008.5
20260505092534 14 0 0.0 6.4 0.00 0.00 0.00 66 1008.4
20260505092033 14 295 1.6 6.4 0.00 0.00 0.00 66 1008.3
20260505091555 14 295 1.6 12.9 0.00 0.00 0.00 65 1008.2
20260505091031 14 295 4.8 12.9 0.00 0.00 0.00 65 1008.2
20260505090533 14 295 6.4 11.3 0.00 0.00 0.00 65 1008.1
20260505090055 14 295 6.4 11.3 0.00 0.00 0.00 65 1007.9
20260505085534 14 295 4.8 11.3 0.00 0.00 0.00 65 1008.0
20260505085033 15 295 6.4 11.3 0.00 0.00 0.00 64 1008.0
20260505084541 15 295 6.4 12.9 0.00 0.00 0.00 64 1008.0
20260505084034 15 295 8.0 12.9 0.00 0.00 0.00 64 1008.0
20260505083534 15 295 8.0 12.9 0.00 0.00 0.00 65 1008.1
20260505083046 15 295 8.0 12.9 0.00 0.00 0.00 64 1008.1
20260505082532 15 295 9.7 12.9 0.00 0.00 0.00 64 1008.0
20260505082034 15 295 6.4 11.3 0.00 0.00 0.00 64 1008.0
20260505081552 15 295 6.4 11.3 0.00 0.00 0.00 64 1008.1
20260505081032 15 295 8.0 11.3 0.00 0.00 0.00 65 1008.0
20260505080536 15 295 6.4 11.3 0.00 0.00 0.00 65 1008.0
20260505080046 15 295 6.4 11.3 0.00 0.00 0.00 65 1008.0
20260505075534 15 295 6.4 12.9 0.00 0.00 0.00 64 1008.0
20260505075031 15 295 8.0 12.9 0.00 0.00 0.00 64 1007.9
20260505074604 15 295 6.4 12.9 0.00 0.00 0.00 63 1007.9
20260505074034 15 295 4.8 12.9 0.00 0.00 0.00 62 1007.8
20260505073534 15 295 6.4 12.9 0.00 0.00 0.00 62 1007.9
20260505073049 16 295 9.7 14.5 0.00 0.00 0.00 61 1007.8
20260505072535 16 295 8.0 14.5 0.00 0.00 0.00 61 1007.8
20260505072034 16 295 11.3 14.5 0.00 0.00 0.00 61 1007.7
20260505071542 16 295 9.7 12.9 0.00 0.00 0.00 61 1007.8
20260505071034 16 295 6.4 11.3 0.00 0.00 0.00 61 1007.8
20260505070534 16 295 4.8 11.3 0.00 0.00 0.00 61 1007.7
20260505070045 16 295 6.4 11.3 0.00 0.00 0.00 61 1007.6
20260505065535 16 295 4.8 11.3 0.00 0.00 0.00 61 1007.6
20260505065030 16 295 6.4 11.3 0.00 0.00 0.00 61 1007.5
20260505064538 16 295 6.4 8.0 0.00 0.00 0.00 62 1007.3
20260505064032 16 295 4.8 11.3 0.00 0.00 0.00 62 1007.3
20260505063531 16 295 6.4 11.3 0.00 0.00 0.00 62 1007.4
20260505063050 16 295 6.4 11.3 0.00 0.00 0.00 62 1007.4
20260505062531 16 295 3.2 8.0 0.00 0.00 0.00 61 1007.4
20260505062030 16 0 0.0 3.2 0.00 0.00 0.00 61 1007.5
20260505061609 16 0 0.0 4.8 0.00 0.00 0.00 61 1007.5
20260505061034 15 0 0.0 6.4 0.00 0.00 0.00 61 1007.5
20260505060538 16 295 3.2 6.4 0.00 0.00 0.00 60 1007.5
20260505060046 16 295 1.6 4.8 0.00 0.00 0.00 58 1007.5
20260505055534 17 295 0.0 4.8 0.00 0.00 0.00 58 1007.4
20260505055038 17 295 1.6 6.4 0.00 0.00 0.00 57 1007.4
20260505054556 17 295 3.2 6.4 0.00 0.00 0.00 57 1007.4
20260505054034 17 295 3.2 4.8 0.00 0.00 0.00 57 1007.3
20260505053534 17 0 0.0 4.8 0.00 0.00 0.00 56 1007.2
20260505053114 17 0 0.0 4.8 0.00 0.00 0.00 55 1007.3
20260505052533 17 295 0.0 3.2 0.00 0.00 0.00 55 1007.2
20260505052033 17 0 0.0 3.2 0.00 0.00 0.00 56 1007.2
20260505051546 17 0 0.0 3.2 0.00 0.00 0.00 56 1007.2
20260505051033 17 0 0.0 4.8 0.00 0.00 0.00 56 1007.2
20260505050533 17 295 1.6 4.8 0.00 0.00 0.00 57 1007.2
20260505041546 19 295 1.6 11.3 0.00 0.00 0.00 51 1006.9
20260505041033 19 295 3.2 8.0 0.00 0.00 0.00 52 1007.0
20260505040536 19 295 0.0 8.0 0.00 0.00 0.00 51 1006.9
20260505040044 19 295 1.6 8.0 0.00 0.00 0.00 51 1006.9
20260505035537 20 295 3.2 8.0 0.00 0.00 0.00 50 1006.8
20260505035034 20 295 1.6 11.3 0.00 0.00 0.00 50 1006.7
20260505034545 20 295 3.2 11.3 0.00 0.00 0.00 49 1006.7
20260505034034 20 295 4.8 11.3 0.00 0.00 0.00 49 1006.6
20260505033534 21 295 3.2 11.3 0.00 0.00 0.00 48 1006.6
20260505033050 21 295 6.4 11.3 0.00 0.00 0.00 46 1006.5
20260505032533 21 295 4.8 11.3 0.00 0.00 0.00 46 1006.4
20260505032033 21 295 6.4 11.3 0.00 0.00 0.00 46 1006.4
20260505031548 21 295 6.4 11.3 0.00 0.00 0.00 46 1006.5
20260505031034 21 295 3.2 11.3 0.00 0.00 0.00 47 1006.4
20260505030534 22 295 3.2 11.3 0.00 0.00 0.00 47 1006.2
20260505030048 22 295 4.8 11.3 0.00 0.00 0.00 47 1006.3
20260505025534 22 295 4.8 6.4 0.00 0.00 0.00 47 1006.2
20260505025031 22 295 1.6 6.4 0.00 0.00 0.00 46 1006.0
20260505024604 23 295 3.2 8.0 0.00 0.00 0.00 46 1006.0
20260505024034 23 295 3.2 8.0 0.00 0.00 0.00 46 1006.0
20260505023535 23 295 3.2 8.0 0.00 0.00 0.00 43 1006.0
20260505023045 23 295 3.2 6.4 0.00 0.00 0.00 47 1005.9
20260505022534 24 295 3.2 6.4 0.00 0.00 0.00 47 1005.9
20260505022034 25 295 3.2 8.0 0.00 0.00 0.00 44 1005.9
20260505021601 25 295 3.2 8.0 0.00 0.00 0.00 39 1006.0
20260505021033 25 295 3.2 8.0 0.00 0.00 0.00 42 1005.9
20260505020534 25 295 4.8 8.0 0.00 0.00 0.00 41 1006.0
20260505020047 26 295 4.8 8.0 0.00 0.00 0.00 40 1005.9
20260505015534 26 295 6.4 11.3 0.00 0.00 0.00 39 1005.9
20260505015034 26 295 6.4 11.3 0.00 0.00 0.00 37 1006.0
20260505014549 26 295 6.4 11.3 0.00 0.00 0.00 35 1005.9
20260505014033 27 295 4.8 8.0 0.00 0.00 0.00 35 1005.8
20260505013535 27 295 3.2 8.0 0.00 0.00 0.00 33 1005.8
20260505013047 27 295 3.2 11.3 0.00 0.00 0.00 34 1006.0
20260505012533 27 295 4.8 12.9 0.00 0.00 0.00 33 1006.0
20260505012033 27 295 4.8 16.1 0.00 0.00 0.00 32 1006.0
20260505011548 27 295 6.4 16.1 0.00 0.00 0.00 32 1006.0
20260505011035 27 295 11.3 16.1 0.00 0.00 0.00 31 1006.0
20260505010534 27 295 4.8 12.9 0.00 0.00 0.00 33 1006.1
20260505010046 27 295 4.8 14.5 0.00 0.00 0.00 34 1006.0
20260505005534 27 295 6.4 14.5 0.00 0.00 0.00 31 1006.1
20260505005034 28 295 6.4 14.5 0.00 0.00 0.00 28 1006.2
20260505004545 28 295 3.2 11.3 0.00 0.00 0.00 26 1006.1
20260505004033 28 295 4.8 11.3 0.00 0.00 0.00 25 1006.2
20260505003535 28 295 4.8 11.3 0.00 0.00 0.00 25 1006.3
20260505003039 28 295 6.4 11.3 0.00 0.00 0.00 28 1006.2
20260505002534 28 295 4.8 12.9 0.00 0.00 0.00 26 1006.2
20260505002035 28 295 8.0 14.5 0.00 0.00 0.00 26 1006.3
20260505001541 28 295 8.0 17.7 0.00 0.00 0.00 25 1006.2
20260505001035 28 295 9.7 17.7 0.00 0.00 0.00 25 1006.2
20260505000535 28 295 11.3 16.1 0.00 0.00 0.00 24 1006.3
20260505000044 28 295 4.8 14.5 0.00 0.00 0.00 26 1006.4
20260504235534 28 295 4.8 14.5 0.00 0.00 0.00 26 1006.5
20260504235036 28 295 6.4 14.5 0.00 0.00 0.00 26 1006.5
20260504234544 28 295 4.8 14.5 0.00 0.00 0.00 26 1006.5
20260504234040 28 295 4.8 12.9 0.00 0.00 0.00 28 1006.5
20260504233534 28 295 4.8 12.9 0.00 0.00 0.00 26 1006.5
20260504233055 28 295 4.8 12.9 0.00 0.00 0.00 26 1006.6
20260504232534 28 295 4.8 16.1 0.00 0.00 0.00 26 1006.6
20260504232034 28 295 8.0 17.7 0.00 0.00 0.00 27 1006.6
20260504231540 28 295 6.4 17.7 0.00 0.00 0.00 26 1006.6
20260504231034 28 295 12.9 17.7 0.00 0.00 0.00 26 1006.7
20260504230534 28 295 3.2 20.9 0.00 0.00 0.00 26 1006.7
20260504230050 27 295 8.0 20.9 0.00 0.00 0.00 26 1006.9
20260504225535 28 295 9.7 17.7 0.00 0.00 0.00 26 1006.9
20260504225034 28 295 4.8 11.3 0.00 0.00 0.00 27 1006.9
20260504224546 28 295 4.8 17.7 0.00 0.00 0.00 26 1006.9
20260504224036 28 295 6.4 17.7 0.00 0.00 0.00 26 1007.0
20260504223534 28 295 3.2 8.0 0.00 0.00 0.00 27 1007.0
20260504223053 28 295 4.8 14.5 0.00 0.00 0.00 26 1007.1
20260504222533 27 295 3.2 16.1 0.00 0.00 0.00 26 1007.1
20260504222034 27 295 9.7 17.7 0.00 0.00 0.00 26 1007.3
20260504221547 28 295 8.0 17.7 0.00 0.00 0.00 26 1007.3
20260504221034 28 295 3.2 14.5 0.00 0.00 0.00 26 1007.3
20260504220535 27 295 3.2 14.5 0.00 0.00 0.00 27 1007.4
20260504215534 27 295 4.8 11.3 0.00 0.00 0.00 28 1007.4
20260504215033 27 295 1.6 22.5 0.00 0.00 0.00 28 1007.4
20260504214548 27 295 11.3 22.5 0.00 0.00 0.00 27 1007.6
20260504214034 27 295 3.2 14.5 0.00 0.00 0.00 28 1007.7
20260504213534 27 295 6.4 25.7 0.00 0.00 0.00 27 1007.7
20260504213055 27 295 9.7 25.7 0.00 0.00 0.00 27 1007.8
20260504212534 27 295 11.3 25.7 0.00 0.00 0.00 28 1007.8
20260504212037 27 295 6.4 14.5 0.00 0.00 0.00 28 1007.9
20260504211546 27 295 1.6 20.9 0.00 0.00 0.00 28 1007.9
20260504211034 27 295 8.0 20.9 0.00 0.00 0.00 27 1007.9
20260504210534 27 295 4.8 12.9 0.00 0.00 0.00 28 1008.0
20260504210044 26 295 4.8 14.5 0.00 0.00 0.00 28 1008.0
20260504205535 26 295 4.8 16.1 0.00 0.00 0.00 28 1008.2
20260504205034 26 295 4.8 16.1 0.00 0.00 0.00 29 1008.2
20260504204557 26 295 8.0 20.9 0.00 0.00 0.00 29 1008.3
20260504204035 26 295 9.7 20.9 0.00 0.00 0.00 28 1008.3
20260504203535 26 295 8.0 20.9 0.00 0.00 0.00 27 1008.2
20260504203050 26 295 4.8 14.5 0.00 0.00 0.00 27 1008.2
20260504202536 26 0 3.2 16.1 0.00 0.00 0.00 28 1008.4
20260504202037 26 295 9.7 16.1 0.00 0.00 0.00 28 1008.5
20260504201550 26 295 8.0 14.5 0.00 0.00 0.00 28 1008.5
20260504201034 26 295 3.2 8.0 0.00 0.00 0.00 28 1008.6
20260504200616 26 295 3.2 16.1 0.00 0.00 0.00 28 1008.7
20260504200047 26 295 3.2 16.1 0.00 0.00 0.00 28 1008.8
20260504195534 26 295 8.0 16.1 0.00 0.00 0.00 27 1008.8
20260504195035 26 295 1.6 12.9 0.00 0.00 0.00 29 1008.8
20260504194546 26 295 4.8 12.9 0.00 0.00 0.00 29 1008.8
20260504194034 26 295 4.8 11.3 0.00 0.00 0.00 30 1008.7
20260504193535 25 295 3.2 11.3 0.00 0.00 0.00 30 1008.8
20260504193042 25 0 1.6 14.5 0.00 0.00 0.00 29 1008.8
20260504192534 25 295 4.8 14.5 0.00 0.00 0.00 30 1008.8
20260504192034 25 295 4.8 8.0 0.00 0.00 0.00 31 1008.8
20260504191547 25 295 3.2 8.0 0.00 0.00 0.00 30 1008.9
20260504191033 24 295 4.8 16.1 0.00 0.00 0.00 30 1009.0
20260504190531 24 295 8.0 17.7 0.00 0.00 0.00 30 1009.0
20260504190040 24 295 12.9 19.3 0.00 0.00 0.00 30 1009.1
20260504185531 24 295 8.0 19.3 0.00 0.00 0.00 30 1009.0
20260504185320 24 295 8.0 19.3 0.00 0.00 0.00 32 1009.1
20260504184031 24 295 8.0 16.1 0.00 0.00 0.00 33 1009.1
20260504183736 24 295 8.0 14.5 0.00 0.00 0.00 35 1009.1
20260504182031 23 295 4.8 12.9 0.00 0.00 0.00 36 1009.1
20260504181545 23 295 4.8 17.7 0.00 0.00 0.00 37 1009.1
20260504181033 23 295 9.7 17.7 0.00 0.00 0.00 37 1009.0
20260504180714 23 295 4.8 16.1 0.00 0.00 0.00 38 1009.1
20260504180537 23 295 4.8 16.1 0.00 0.00 0.00 38 1009.1
20260504180041 22 295 4.8 17.7 0.00 0.00 0.00 39 1009.2
20260504175530 22 295 9.7 17.7 0.00 0.00 0.00 39 1009.0
20260504175034 22 295 8.0 16.1 0.00 0.00 0.00 38 1009.0
20260504174550 22 295 8.0 16.1 0.00 0.00 0.00 38 1009.1
20260504174031 22 295 4.8 16.1 0.00 0.00 0.00 40 1009.1
20260504173531 21 295 1.6 20.9 0.00 0.00 0.00 42 1009.2
20260504173048 21 295 11.3 20.9 0.00 0.00 0.00 41 1009.1
20260504172534 21 0 6.4 11.3 0.00 0.00 0.00 41 1009.1
20260504172035 21 295 3.2 16.1 0.00 0.00 0.00 43 1009.1
20260504171548 21 295 6.4 16.1 0.00 0.00 0.00 44 1009.1
20260504171032 21 295 4.8 16.1 0.00 0.00 0.00 45 1009.1
20260504170534 20 295 4.8 14.5 0.00 0.00 0.00 46 1009.1